This demonstration page uses our WeatherBlox Daily Observations layout. Learn more.

Left ArrowRight Arrow

Hourly Observations for May 12, 2020

Temp ( °F °C ) Dew Point ( °F °C ) Humidity (%) Winds ( mph kmh ) Pressure ( in mb ) Visibility ( mi km ) Precip ( " mm )
12:53 am 00:53 Clear 63 17.2 57 13.9 81 81 SE 8 13 29.86 1011 10 16 0.00 0.00
1:53 am 01:53 Clear 62 16.7 57 13.9 84 84 ESE 6 9 29.83 1010 10 16 0.00 0.00
2:53 am 02:53 Clear 61 16.1 58 14.4 90 90 S 7 11 29.83 1010 10 16 0.00 0.00
3:53 am 03:53 Clear 60 15.6 57 13.9 90 90 SE 3 6 29.81 1009 10 16 0.00 0.00
4:53 am 04:53 Clear 59 15 57 13.9 93 93 SW 3 6 29.81 1010 10 16 0.00 0.00
5:53 am 05:53 Clear 58 14.4 57 13.9 97 97 E 6 9 29.82 1010 10 16 0.00 0.00
6:53 am 06:53 Clear 58 14.4 55 12.8 90 90 Calm 29.83 1010 10 16 0.00 0.00
7:53 am 07:53 Sunny 61 16.1 58 14.4 90 90 Calm 29.89 1012 10 16 0.00 0.00
8:53 am 08:53 Sunny 65 18.3 57 13.9 76 76 SSE 5 7 29.86 1011 10 16 0.00 0.00
9:53 am 09:53 Sunny 69 20.6 58 14.4 68 68 ESE 5 7 29.86 1011 10 16 0.00 0.00
10:53 am 10:53 Sunny 73 22.8 56 13.3 55 55 Calm 29.85 1011 10 16 0.00 0.00
11:53 am 11:53 Sunny 77 25 57 13.9 50 50 S 5 7 29.83 1010 10 16 0.00 0.00
12:53 pm 12:53 Sunny 82 27.8 51 10.6 34 34 SW 12 19 29.81 1009 10 16 0.00 0.00
1:53 pm 13:53 Sunny 85 29.4 51 10.6 31 31 SW 9 15 29.79 1009 10 16 0.00 0.00
2:53 pm 14:53 Sunny 87 30.6 49 9.4 27 27 SSW 7 11 29.76 1008 10 16 0.00 0.00
3:53 pm 15:53 Sunny 89 31.7 46 7.8 23 23 SSE 8 13 29.73 1007 10 16 0.00 0.00
4:53 pm 16:53 Sunny 91 32.8 42 5.6 18 18 SW 9 15 29.70 1006 10 16 0.00 0.00
5:53 pm 17:53 Sunny 92 33.3 39 3.9 16 16 S 9 15 29.68 1005 10 16 0.00 0.00
6:53 pm 18:53 Mostly Sunny 92 33.3 42 5.6 18 18 S 12 19 29.66 1005 10 16 0.00 0.00
7:53 pm 19:53 Sunny 89 31.7 44 6.7 21 21 SE 13 20 29.66 1004 10 16 0.00 0.00
8:53 pm 20:53 Clear 82 27.8 50 10 33 33 ESE 10 17 29.67 1005 10 16 0.00 0.00
9:53 pm 21:53 Clear 79 26.1 53 11.7 41 41 SE 14 22 29.69 1005 10 16 0.00 0.00
10:53 pm 22:53 Clear 77 25 55 12.8 47 47 SE 13 20 29.71 1006 10 16 0.00 0.00
11:53 pm 23:53 Clear 76 24.4 56 13.3 50 50 SE 15 24 29.71 1006 10 16 0.00 0.00

Powered by AerisWeather